TimeCDT,TemperatureF,Dew PointF,Humidity,Sea Level PressureIn,VisibilityMPH,Wind Direction,Wind SpeedMPH,Gust SpeedMPH,PrecipitationIn,Events,Conditions,WindDirDegrees,DateUTC
12:15 AM,64.4,45.1,50,29.95,10.0,SE,6.9,-,N/A,,Clear,140,2012-11-03 05:15:00
12:35 AM,63.9,45.5,51,29.95,10.0,SE,8.1,-,N/A,,Clear,140,2012-11-03 05:35:00
12:55 AM,63.3,45.7,53,29.95,10.0,SE,8.1,-,N/A,,Clear,140,2012-11-03 05:55:00
1:15 AM,60.6,45.7,58,29.95,10.0,SE,6.9,-,N/A,,Clear,130,2012-11-03 06:15:00
1:35 AM,58.5,46.0,63,29.95,10.0,SE,6.9,-,N/A,,Clear,130,2012-11-03 06:35:00
1:55 AM,57.2,45.7,65,29.96,10.0,SSW,8.1,-,N/A,,Clear,210,2012-11-03 06:55:00
2:15 AM,57.6,44.2,61,29.96,10.0,South,4.6,-,N/A,,Clear,170,2012-11-03 07:15:00
2:35 AM,56.3,43.2,61,29.96,10.0,Calm,Calm,-,N/A,,Clear,0,2012-11-03 07:35:00
2:55 AM,55.6,43.3,63,29.96,10.0,ENE,3.5,-,N/A,,Clear,70,2012-11-03 07:55:00
3:15 AM,54.7,45.5,71,29.95,10.0,ENE,9.2,-,N/A,,Clear,70,2012-11-03 08:15:00
3:35 AM,54.0,44.4,70,29.96,10.0,West,8.1,-,N/A,,Clear,270,2012-11-03 08:35:00
3:55 AM,52.0,42.1,69,29.97,10.0,West,8.1,-,N/A,,Clear,280,2012-11-03 08:55:00
4:15 AM,51.8,42.1,69,29.97,10.0,NNW,8.1,-,N/A,,Clear,340,2012-11-03 09:15:00
4:35 AM,52.3,42.3,69,29.98,10.0,NW,10.4,-,N/A,,Clear,310,2012-11-03 09:35:00
4:55 AM,54.9,44.2,67,29.98,10.0,NE,5.8,-,N/A,,Clear,50,2012-11-03 09:55:00
5:15 AM,53.8,44.8,72,30.00,10.0,WNW,10.4,21.9,N/A,,Clear,300,2012-11-03 10:15:00
5:35 AM,56.7,45.5,66,30.00,10.0,WNW,6.9,-,N/A,,Mostly Cloudy,300,2012-11-03 10:35:00
5:55 AM,56.5,46.0,68,30.00,10.0,NW,4.6,-,N/A,,Mostly Cloudy,310,2012-11-03 10:55:00
6:15 AM,61.9,45.1,54,30.00,10.0,NW,8.1,-,N/A,,Scattered Clouds,310,2012-11-03 11:15:00
6:35 AM,59.4,46.4,62,30.01,10.0,NW,11.5,-,N/A,,Clear,320,2012-11-03 11:35:00
6:55 AM,59.9,45.5,59,30.02,10.0,NNW,8.1,-,N/A,,Clear,330,2012-11-03 11:55:00
7:15 AM,58.6,46.0,63,30.03,10.0,Calm,Calm,-,N/A,,Clear,0,2012-11-03 12:15:00
7:35 AM,59.4,45.7,61,30.03,10.0,WSW,5.8,-,N/A,,Clear,250,2012-11-03 12:35:00
7:55 AM,58.6,45.5,62,30.04,10.0,Calm,Calm,-,N/A,,Scattered Clouds,0,2012-11-03 12:55:00
8:15 AM,55.4,46.6,72,30.05,10.0,East,5.8,-,N/A,,Mostly Cloudy,90,2012-11-03 13:15:00
8:35 AM,61.0,46.6,59,30.06,10.0,East,8.1,-,N/A,,Overcast,100,2012-11-03 13:35:00
8:55 AM,60.4,47.3,62,30.07,10.0,East,8.1,-,N/A,,Mostly Cloudy,90,2012-11-03 13:55:00
9:15 AM,57.2,48.9,74,30.07,10.0,NNE,6.9,-,N/A,,Mostly Cloudy,20,2012-11-03 14:15:00
9:35 AM,58.3,48.9,71,30.11,10.0,NNE,9.2,-,N/A,,Overcast,20,2012-11-03 14:35:00
9:55 AM,60.1,33.6,37,30.11,10.0,NW,21.9,25.3,N/A,,Overcast,320,2012-11-03 14:55:00
10:15 AM,61.0,31.5,33,30.12,10.0,NW,23.0,-,N/A,,Mostly Cloudy,320,2012-11-03 15:15:00
10:35 AM,62.1,32.2,33,30.09,10.0,NNW,20.7,28.8,N/A,,Scattered Clouds,340,2012-11-03 15:35:00
10:55 AM,62.8,34.3,35,30.12,10.0,NW,28.8,35.7,N/A,,Clear,320,2012-11-03 15:55:00
11:15 AM,63.7,34.3,34,30.12,10.0,NNW,20.7,24.2,N/A,,Clear,330,2012-11-03 16:15:00
11:35 AM,65.1,33.4,31,30.13,10.0,North,15.0,-,N/A,,Mostly Cloudy,350,2012-11-03 16:35:00
11:55 AM,64.9,33.8,31,30.15,10.0,NW,9.2,-,N/A,,Overcast,320,2012-11-03 16:55:00
12:15 PM,64.0,34.7,34,30.16,10.0,WNW,17.3,-,N/A,,Mostly Cloudy,290,2012-11-03 17:15:00
12:35 PM,61.9,35.2,37,30.16,10.0,WNW,11.5,-,N/A,,Mostly Cloudy,290,2012-11-03 17:35:00
12:55 PM,60.3,40.8,49,30.14,10.0,NW,16.1,-,N/A,,Overcast,310,2012-11-03 17:55:00
1:15 PM,62.4,39.9,44,30.14,10.0,NW,13.8,-,N/A,,Scattered Clouds,320,2012-11-03 18:15:00
1:35 PM,63.9,40.1,42,30.12,10.0,NNW,18.4,-,N/A,,Clear,330,2012-11-03 18:35:00
1:55 PM,64.8,39.4,39,30.12,10.0,NNW,15.0,-,N/A,,Clear,340,2012-11-03 18:55:00
2:15 PM,68.7,39.9,35,30.12,10.0,NNW,12.7,19.6,N/A,,Clear,340,2012-11-03 19:15:00
2:35 PM,70.3,41.0,34,30.10,10.0,North,13.8,18.4,N/A,,Clear,10,2012-11-03 19:35:00
2:55 PM,70.5,41.5,35,30.09,10.0,NNW,13.8,-,N/A,,Clear,340,2012-11-03 19:55:00
3:15 PM,71.2,41.7,34,30.08,10.0,NNW,12.7,17.3,N/A,,Clear,330,2012-11-03 20:15:00
3:35 PM,71.4,41.5,34,30.07,10.0,North,6.9,-,N/A,,Clear,350,2012-11-03 20:35:00
7:15 PM,63.9,42.1,45,30.10,10.0,NNW,6.9,-,N/A,,Clear,330,2012-11-04 00:15:00
7:35 PM,62.8,41.5,46,30.10,10.0,NNW,5.8,-,N/A,,Clear,330,2012-11-04 00:35:00
8:15 PM,59.9,41.4,50,30.11,10.0,NNW,4.6,-,N/A,,Clear,330,2012-11-04 01:15:00
8:35 PM,58.8,41.9,53,30.11,10.0,NW,4.6,-,N/A,,Clear,320,2012-11-04 01:35:00
8:55 PM,57.4,41.4,55,30.11,10.0,NW,5.8,-,N/A,,Clear,320,2012-11-04 01:55:00
9:15 PM,55.9,41.4,58,30.12,10.0,NW,5.8,-,N/A,,Clear,320,2012-11-04 02:15:00
9:35 PM,55.6,41.5,59,30.12,10.0,NW,5.8,-,N/A,,Clear,320,2012-11-04 02:35:00
9:55 PM,55.2,41.4,60,30.12,10.0,NW,6.9,-,N/A,,Clear,320,2012-11-04 02:55:00
10:15 PM,53.8,41.4,63,30.13,10.0,NW,4.6,-,N/A,,Clear,310,2012-11-04 03:15:00
10:35 PM,53.2,42.1,66,30.14,10.0,NW,6.9,-,N/A,,Clear,320,2012-11-04 03:35:00
10:55 PM,53.2,42.3,66,30.14,10.0,NNW,4.6,-,N/A,,Clear,330,2012-11-04 03:55:00
11:15 PM,52.7,41.9,67,30.15,10.0,NW,4.6,-,N/A,,Clear,320,2012-11-04 04:15:00
11:35 PM,52.7,42.3,68,30.15,10.0,NNW,4.6,-,N/A,,Clear,340,2012-11-04 04:35:00
11:55 PM,52.0,42.1,69,30.16,10.0,North,3.5,-,N/A,,Clear,350,2012-11-04 04:55:00